Location: Nag� el Ma?a??a
(24.0667°N, 32.8833°E)
Time: 16:46:58
(UTC+00:00)

Cosmos 1553 Rocket - Pass Details

Date: 25 September 2021
Orbit: 942 x 1007 km, 82.9° (Epoch: 16 October)

Event Time Altitude Azimuth Distance (km) Brightness Sun altitude
Exits shadow 01:46:35 21° 186° (S) 2,002 5.5 -26.1°
Maximum altitude 01:50:53 86° 274° (W) 969 3.8 -25.2°
Drops below altitude 10° 01:57:08 10° 4° (N) 2,724 6.5 -23.8°
Sets 01:59:40 0° 5° (N) 3,684 7.2 -23.2°
